KUIPER-00151

Last updated on Mon Oct 20 2025 00:02:06 GMT+0000 (Coordinated Universal Time)

1 65771U 25217K 25292.32177679 .00054903 00000+0 15326-2 0 9994 2 65771 51.8699 327.5311 0005267 162.2262 197.8909 15.36182104 3679
UTC large
Height (km)
Speed (km/s)
/
Latitude / Longitude
Inclination (degrees)
Orbital Period (minutes)
Azimuth
Elevation
Range (km)
Doppler Factor

Next 0 passes for location: London (51.5072 / 0.1276)

Sorry there are no passes over London.